Temperature
14 14 14 14 14 14 14 14 14 14 14 14 14 14 14 14 13 13 13 14 13 13 13 13 13 13 13 12 12 12 12 12 12 12 12 12 11 11 11 11 11 11 11
14 14 14 14 14 14 14 14 14 14 14 14 14 14 14 13 13 13 13 13 13 13 13 13 13 13 13 13 13 12 12 12 12 12 12 12 11 11 11 11 11 11 11
14 14 14 14 14 14 14 14 14 14 14 14 13 13 13 13 13 13 13 13 13 13 13 13 13 13 13 13 13 13 13 12 12 12 12 12 11 11 11 11 11 10 10
14 14 14 14 14 13 13 13 13 13 13 13 13 13 13 13 13 13 13 13 13 13 13 13 13 13 13 13 13 13 13 12 12 12 12 12 11 11 11 11 11 10 10
13 13 13 13 13 13 13 13 13 13 13 13 13 13 13 13 13 13 13 13 13 13 13 13 13 13 13 13 13 13 13 12 12 12 12 12 11 11 11 11 10 10 10
13 13 13 13 13 13 13 13 13 13 13 13 13 13 13 13 13 13 13 13 13 13 13 13 13 13 13 13 13 13 12 12 12 12 12 12 11 11 11 10 10 10 10
13 12 13 12 12 12 12 13 12 12 12 12 12 12 12 12 12 13 13 13 13 13 13 13 13 13 13 13 13 12 12 12 12 12 12 11 11 11 10 10 10 10 10
12 12 12 12 12 12 12 12 12 12 12 12 11 11 12 12 12 12 13 13 13 13 13 13 13 13 13 13 13 12 12 12 12 12 11 11 11 10 10 10 10 9 9
12 12 12 12 12 12 12 12 12 12 11 11 11 11 12 13 13 12 13 13 13 13 13 13 13 12 12 12 12 12 12 12 12 11 11 11 10 10 10 10 9 9 9
11 11 11 11 11 11 11 11 11 11 11 11 11 11 12 12 12 12 12 13 13 12 12 12 12 12 12 12 12 12 12 12 12 11 11 10 10 10 10 9 9 9 9
11 11 11 11 11 11 11 11 11 11 11 11 11 11 11 11 11 12 12 12 12 12 12 12 12 12 12 12 12 12 12 12 11 11 11 10 10 9 9 9 9 9 8
10 10 10 10 10 10 10 11 11 11 11 11 11 11 10 10 11 11 11 11 12 12 12 12 12 12 12 12 12 12 11 11 11 11 10 10 9 9 9 9 9 8 8
9 9 9 10 10 10 10 10 10 10 10 10 10 10 10 10 10 11 11 11 11 11 11 12 12 12 12 12 11 11 11 11 10 10 10 10 9 9 9 9 8 8 8
8 8 9 9 9 9 10 10 10 10 10 10 10 10 10 10 10 10 10 10 10 10 10 11 11 11 11 11 11 11 10 10 10 10 10 9 9 9 8 8 8 8 8
8 8 8 8 9 9 9 9 9 9 9 9 9 9 9 9 9 9 9 10 10 9 9 10 10 11 11 10 10 10 10 10 10 9 9 9 9 8 8 8 7 7 7
7 7 7 8 8 8 8 8 8 8 9 9 9 9 9 9 9 9 9 9 9 9 9 9 10 10 10 10 10 9 9 9 9 9 9 8 8 8 7 7 7 7 7
6 6 7 7 7 7 7 7 8 8 8 8 8 8 8 8 8 8 8 8 8 8 8 8 9 9 9 9 9 9 9 9 9 8 8 8 7 7 7 7 7 7 7
6 6 6 6 6 6 6 6 7 7 7 7 7 7 7 7 8 8 7 7 8 8 8 8 8 8 8 8 8 8 8 8 8 8 7 7 7 7 6 6 6 6 6
5 5 5 5 5 5 5 5 5 6 6 6 6 6 6 6 6 7 7 7 7 7 7 7 7 7 8 8 7 7 7 7 7 7 7 7 6 6 6 6 6 6 6
3 3 4 4 4 4 4 4 4 4 5 5 5 5 5 5 5 5 6 6 6 6 6 6 6 6 7 7 6 6 6 6 6 6 6 6 6 5 5 5 5 5 5
2 3 3 3 3 3 3 3 3 3 3 4 4 4 4 4 4 4 4 5 4 5 5 5 5 5 5 5 5 6 5 5 5 5 5 5 5 5 5 5 5 4 5
1 2 1 1 2 2 2 2 2 2 2 2 3 3 3 3 3 3 3 4 4 4 4 4 4 4 4 5 5 5 5 4 4 5 5 5 4 4 4 4 4 4 4
1 1 1 1 1 1 1 1 1 1 1 1 1 1 2 2 2 2 2 3 3 3 3 3 3 3 3 4 4 4 4 4 4 5 4 4 4 4 4 4 4 3 3
-0 -0 -0 -1 -1 -0 -0 -0 -0 -0 -0 -0 0 0 0 1 1 1 1 2 2 2 2 2 2 3 3 3 3 4 4 3 3 3 4 3 3 3 3 3 3 3 3
-1 -1 -1 -2 -2 -2 -2 -2 -2 -2 -2 -2 -1 -1 -1 -1 -0 -0 -0 0 1 1 1 1 2 2 2 3 3 2 2 2 2 2 3 3 3 3 2 2 2 2 2
-2 -2 -2 -2 -3 -3 -3 -3 -3 -3 -4 -3 -3 -3 -2 -2 -2 -2 -2 -2 -1 -0 0 1 1 1 2 2 2 2 2 2 2 2 2 2 2 2 2 2 2 2 2
Wind_Speed
10 10 9 11 13 14 13 12 12 13 12 12 12 12 11 11 10 9 7 11 12 12 11 11 11 12 11 11 10 9 8 8 8 7 6 5 4 3 3 3 3 3 4
10 10 10 10 11 12 13 12 12 11 10 10 11 12 12 12 11 11 9 10 14 14 13 12 12 12 12 12 11 11 10 9 9 8 7 7 6 5 4 4 4 4 4
12 11 10 10 10 12 12 10 11 10 9 9 11 12 11 11 11 12 11 10 11 14 15 14 14 13 13 12 12 11 10 10 9 9 8 7 7 6 5 4 4 4 4
13 10 9 10 11 11 10 9 9 9 9 10 10 10 10 9 12 12 12 11 11 11 14 16 15 14 13 12 11 11 11 11 10 9 9 8 7 6 6 5 4 4 4
13 10 9 9 11 9 10 10 10 10 10 10 10 9 10 10 10 11 12 13 12 12 11 12 15 15 14 13 12 12 12 12 12 11 9 8 7 6 5 4 3 3 4
12 11 9 11 11 9 10 10 11 10 9 9 9 9 9 10 10 11 12 12 12 13 13 12 12 13 15 15 15 14 13 13 12 12 11 9 8 7 6 5 4 3 3
11 11 10 10 10 11 11 12 11 11 10 8 7 8 10 11 12 11 11 11 12 13 13 13 12 11 11 15 16 15 14 14 14 13 12 11 10 9 7 6 4 3 2
11 10 11 9 10 10 12 12 11 9 8 9 8 7 7 10 11 12 11 11 12 11 11 13 13 13 11 12 14 17 16 16 15 15 14 12 11 10 9 8 6 4 3
9 9 10 10 10 10 11 12 13 13 10 10 10 8 7 10 7 9 12 12 12 11 11 11 13 14 14 13 13 17 19 18 17 16 15 14 13 12 10 8 7 5 4
7 7 8 10 10 10 11 12 13 11 12 10 10 11 9 5 6 6 7 10 12 12 12 10 11 13 14 14 14 16 19 20 19 18 17 16 15 14 12 10 8 7 5
4 5 6 7 9 9 11 12 12 13 12 12 10 8 10 8 9 7 7 7 8 10 11 11 10 11 14 15 15 17 19 20 20 19 18 17 16 15 13 12 10 8 7
3 4 5 6 7 7 9 10 11 13 13 13 11 10 9 8 9 9 9 8 8 8 9 9 9 10 12 14 16 17 19 20 21 20 19 18 17 15 14 12 11 9 7
3 4 4 5 6 6 7 8 9 11 12 12 12 11 10 11 8 8 8 7 7 5 6 7 9 9 10 13 14 17 19 20 21 21 20 18 16 14 13 12 11 9 8
5 5 4 4 5 5 5 6 6 8 8 10 12 12 10 10 10 9 8 7 6 6 7 8 6 9 10 12 14 18 17 20 21 21 20 18 15 13 13 12 10 9 7
6 7 6 5 4 4 4 4 5 5 6 7 9 10 10 9 8 8 7 7 8 9 10 9 6 8 9 10 13 15 15 18 20 20 19 17 15 14 14 13 11 9 8
8 8 8 7 6 6 5 4 3 4 4 5 6 9 9 7 7 7 7 7 8 9 10 7 6 5 8 8 13 14 15 17 19 20 19 18 17 16 15 14 12 10 9
10 10 9 8 8 8 7 6 5 4 4 4 4 6 8 8 7 7 7 8 8 8 10 6 5 5 8 9 8 12 13 13 14 19 19 19 18 17 16 15 13 12 10
10 10 10 10 10 9 9 8 8 6 5 5 4 4 5 5 7 7 7 9 9 9 9 9 6 6 8 10 9 10 8 11 12 16 19 19 19 18 17 15 14 12 10
10 10 10 10 10 9 9 9 8 8 7 6 5 5 5 5 7 6 7 8 8 8 8 8 7 6 5 6 8 7 8 7 8 13 17 18 19 19 18 16 15 13 11
9 9 9 9 9 9 9 9 9 9 8 7 7 6 6 6 7 7 7 8 8 8 8 8 7 6 5 6 7 7 7 7 7 8 12 14 17 18 18 17 15 14 12
9 9 9 9 8 8 9 11 10 10 10 9 9 8 7 8 9 8 8 8 9 8 8 8 8 6 6 7 9 7 9 7 7 7 8 8 10 11 13 16 16 15 13
8 8 9 9 9 8 12 14 12 10 10 10 10 10 9 9 9 11 12 12 11 11 10 10 9 10 10 9 9 8 8 7 6 7 8 8 8 9 9 12 15 15 15
9 9 9 9 9 10 14 15 15 11 10 9 10 10 9 9 10 10 11 12 12 13 14 12 12 12 11 10 11 11 11 11 9 8 9 8 8 9 8 12 15 16 15
9 9 9 10 10 10 14 15 16 12 10 10 10 11 11 11 10 12 12 11 12 12 12 12 12 12 10 10 11 12 11 8 3 5 7 7 7 7 7 9 15 17 16
9 9 9 10 10 11 13 15 15 10 10 11 11 11 11 12 14 15 13 12 12 11 11 13 14 13 13 14 12 8 8 8 6 6 6 5 5 5 5 7 11 16 15
9 10 10 10 10 11 13 15 15 9 10 11 11 11 12 13 16 16 13 12 13 11 9 10 10 10 11 12 15 13 11 10 6 5 7 7 6 5 4 5 6 9 11
Wind_Direction
215 211 210 204 201 199 198 200 203 202 204 206 209 212 213 215 218 216 208 205 221 230 232 230 228 227 226 225 224 222 219 216 215 215 219 223 231 237 254 278 295 311 323
216 212 212 210 206 202 201 201 202 202 205 208 213 215 219 220 225 223 223 211 218 228 235 237 236 233 232 228 227 221 218 217 215 215 221 225 228 233 244 259 277 293 301
217 213 211 210 209 203 201 202 204 204 207 212 218 220 222 225 225 226 225 226 221 223 229 236 238 237 236 234 229 221 216 211 211 215 219 225 228 235 242 250 266 283 292
218 216 211 210 206 202 200 198 199 203 208 213 220 220 222 225 231 230 227 227 228 225 223 226 233 234 233 230 227 221 216 209 209 213 218 222 226 230 231 238 257 271 281
219 216 214 212 204 202 202 200 201 206 211 215 221 223 226 227 231 230 231 229 228 226 228 218 222 227 227 226 226 223 218 211 208 210 213 215 218 221 225 224 239 256 274
220 218 217 214 205 203 204 203 203 206 214 213 218 226 230 232 233 232 233 230 228 226 227 225 220 221 222 223 225 221 218 211 208 208 209 209 209 210 212 218 230 245 265
227 223 220 216 210 209 208 206 205 208 212 208 213 227 233 233 235 233 232 230 227 225 224 224 223 220 216 217 219 216 216 214 211 208 206 207 206 207 211 211 221 231 262
230 224 221 218 216 215 213 210 208 211 209 199 206 216 228 228 228 229 228 228 229 223 223 223 221 220 219 214 212 210 214 215 212 209 209 209 209 211 213 215 218 223 254
234 228 226 223 220 219 219 214 207 209 211 206 210 213 219 228 223 218 222 225 225 223 222 220 220 220 219 218 212 209 210 213 213 213 212 212 212 211 209 210 212 222 245
241 236 233 231 228 225 224 220 215 215 213 211 212 226 237 246 226 221 214 221 223 225 225 221 220 220 220 219 218 212 206 208 212 215 216 215 214 212 211 211 216 226 241
259 250 240 237 235 232 230 224 219 217 216 216 211 213 226 233 234 235 232 219 221 226 226 222 220 219 219 220 219 215 205 206 212 217 220 219 216 214 214 216 220 227 237
292 282 262 248 244 241 237 232 225 222 219 220 218 215 215 217 219 224 234 227 226 224 222 222 220 219 218 220 220 213 206 207 214 219 221 220 219 218 215 217 219 224 232
308 295 279 265 257 256 248 239 230 227 224 220 221 222 223 226 224 223 231 237 237 231 221 225 222 219 217 218 219 210 211 211 214 217 219 219 218 216 213 216 217 221 230
325 319 302 288 275 271 262 248 236 233 232 228 228 226 227 228 226 223 222 224 233 233 225 227 214 216 216 215 217 208 214 212 214 216 217 218 215 205 202 207 209 214 221
347 346 338 333 324 313 295 265 247 241 242 239 236 232 229 228 228 229 226 223 227 238 238 229 215 212 210 212 211 211 215 211 211 213 213 211 200 194 194 198 201 204 213
10 5 2 4 1 1 352 323 281 267 257 255 248 239 234 232 231 230 229 227 228 236 245 231 224 213 203 211 213 214 218 209 209 211 207 201 194 190 190 194 196 203 211
18 15 12 11 12 9 4 358 342 317 290 282 275 256 245 239 234 230 230 230 230 232 245 245 226 214 207 213 212 215 215 211 211 206 202 197 193 190 190 193 197 201 209
20 17 16 16 15 12 8 6 359 351 328 309 297 283 269 255 244 236 233 234 234 233 239 245 234 217 221 215 212 211 208 210 209 203 198 196 194 192 192 194 199 203 210
15 14 13 12 10 6 3 1 355 347 335 328 316 293 285 270 259 252 248 244 242 241 239 242 238 224 227 209 209 211 208 208 204 200 198 198 197 195 195 198 202 206 213
10 9 7 5 2 359 358 355 350 343 337 327 323 315 302 289 275 267 254 251 248 244 241 241 239 227 222 209 204 208 211 207 204 196 199 198 198 198 200 202 205 207 213
1 359 358 357 355 354 355 350 343 338 333 328 322 315 308 302 302 286 269 255 248 243 242 241 241 233 225 208 211 208 215 210 209 199 196 197 195 199 200 204 206 207 210
355 353 352 349 348 347 347 345 339 331 327 323 320 317 313 303 298 300 282 265 254 247 243 241 242 239 234 228 221 213 208 207 217 199 196 202 195 202 201 202 202 204 208
347 346 344 341 338 338 339 337 335 327 320 317 315 314 311 310 308 299 295 274 258 250 245 245 246 245 240 231 222 219 213 211 219 189 187 202 197 206 202 201 199 201 206
337 335 332 331 327 328 332 332 330 323 315 313 312 311 310 310 313 312 303 289 270 257 250 247 248 248 246 235 227 225 225 222 221 185 184 201 196 205 199 199 200 202 206
327 325 322 322 321 322 328 330 328 318 312 311 310 309 309 308 313 316 307 296 281 270 257 250 253 253 249 241 231 224 211 205 217 207 195 187 183 187 189 201 198 201 204
317 317 315 315 314 315 322 326 326 317 313 312 310 308 307 308 311 312 306 299 288 281 279 273 267 257 248 236 224 219 211 209 206 207 194 180 175 167 181 195 193 192 198
Height
1509 1511 1513 1515 1518 1519 1521 1524 1526 1529 1531 1533 1534 1536 1538 1539 1540 1541 1541 1541 1542 1542 1542 1543 1543 1543 1543 1543 1542 1542 1542 1542 1542 1541 1541 1540 1539 1539 1538 1537 1537 1536 1535
1505 1507 1509 1511 1513 1515 1518 1520 1523 1525 1527 1529 1531 1533 1534 1536 1537 1538 1538 1539 1539 1540 1540 1540 1541 1541 1541 1541 1541 1540 1540 1540 1540 1540 1539 1539 1538 1537 1537 1536 1535 1534 1534
1501 1503 1505 1507 1509 1512 1514 1516 1518 1521 1523 1525 1527 1529 1531 1532 1533 1534 1535 1536 1536 1537 1537 1538 1538 1538 1538 1538 1538 1538 1538 1538 1538 1538 1537 1537 1536 1536 1535 1535 1534 1533 1532
1496 1498 1500 1502 1505 1507 1509 1511 1514 1516 1518 1521 1523 1525 1526 1528 1529 1531 1532 1532 1533 1533 1534 1535 1535 1536 1536 1536 1536 1536 1536 1536 1536 1536 1535 1535 1535 1534 1533 1533 1532 1531 1531
1491 1493 1495 1497 1500 1502 1504 1506 1509 1511 1514 1516 1519 1520 1522 1523 1525 1526 1527 1528 1529 1530 1530 1531 1532 1532 1533 1533 1533 1533 1533 1533 1533 1533 1533 1533 1532 1532 1531 1531 1530 1529 1529
1487 1488 1490 1492 1495 1497 1499 1501 1503 1506 1509 1512 1514 1516 1517 1519 1520 1521 1523 1524 1524 1525 1526 1527 1527 1528 1529 1529 1529 1530 1530 1530 1530 1530 1530 1530 1530 1529 1529 1528 1528 1527 1526
1482 1484 1485 1487 1489 1491 1493 1496 1498 1501 1504 1506 1509 1511 1512 1513 1514 1516 1517 1518 1519 1520 1521 1522 1523 1524 1524 1525 1525 1526 1526 1527 1527 1527 1527 1527 1527 1526 1526 1525 1525 1524 1524
1477 1478 1480 1482 1484 1486 1488 1490 1493 1495 1498 1501 1503 1506 1508 1509 1508 1509 1511 1512 1514 1515 1516 1517 1518 1519 1519 1520 1521 1522 1522 1523 1523 1523 1523 1524 1523 1523 1523 1522 1522 1521 1521
1472 1473 1475 1476 1478 1480 1482 1484 1486 1489 1492 1494 1497 1500 1501 1501 1503 1503 1503 1505 1507 1508 1510 1511 1512 1513 1514 1515 1516 1516 1518 1518 1519 1519 1519 1519 1519 1519 1519 1519 1518 1518 1518
1467 1468 1470 1471 1473 1474 1476 1478 1480 1482 1485 1487 1490 1492 1494 1495 1497 1497 1498 1499 1500 1502 1503 1504 1506 1507 1508 1509 1510 1511 1512 1513 1514 1514 1515 1515 1515 1515 1515 1515 1515 1514 1514
1462 1463 1464 1466 1467 1469 1470 1472 1474 1476 1477 1480 1482 1484 1486 1488 1490 1492 1492 1492 1493 1494 1496 1498 1499 1500 1502 1503 1504 1505 1506 1507 1508 1509 1510 1510 1510 1510 1510 1511 1510 1510 1510
1458 1459 1460 1461 1461 1462 1464 1465 1466 1469 1470 1472 1474 1476 1478 1480 1481 1484 1486 1486 1486 1488 1489 1490 1491 1493 1495 1496 1497 1499 1500 1501 1502 1503 1504 1505 1505 1505 1506 1506 1506 1506 1505
1454 1455 1455 1456 1456 1457 1458 1458 1459 1461 1463 1464 1466 1468 1470 1472 1475 1477 1479 1479 1480 1481 1481 1482 1484 1486 1488 1489 1491 1492 1493 1495 1496 1496 1498 1499 1500 1500 1501 1501 1501 1501 1501
1451 1451 1451 1451 1451 1451 1451 1452 1453 1454 1456 1457 1459 1461 1462 1464 1467 1468 1470 1472 1473 1473 1473 1474 1476 1478 1480 1482 1484 1485 1486 1487 1489 1490 1491 1492 1494 1494 1495 1495 1495 1495 1495
1449 1448 1448 1447 1446 1446 1446 1446 1447 1448 1449 1450 1452 1453 1454 1456 1458 1460 1462 1464 1467 1466 1466 1467 1468 1470 1473 1475 1476 1478 1478 1480 1481 1483 1484 1486 1487 1488 1489 1490 1490 1490 1490
1447 1446 1445 1444 1443 1442 1442 1442 1442 1442 1443 1444 1445 1446 1446 1448 1450 1452 1453 1455 1457 1459 1458 1459 1461 1463 1464 1466 1469 1470 1471 1472 1474 1475 1477 1478 1480 1481 1482 1483 1484 1484 1485
1446 1444 1443 1442 1440 1439 1439 1438 1438 1437 1438 1438 1438 1439 1439 1441 1442 1443 1445 1446 1448 1450 1450 1451 1453 1455 1456 1458 1460 1461 1463 1464 1465 1467 1468 1471 1472 1474 1475 1477 1478 1478 1479
1445 1444 1442 1440 1438 1437 1436 1435 1434 1433 1433 1432 1431 1431 1432 1433 1434 1436 1437 1438 1439 1441 1443 1443 1444 1445 1447 1449 1451 1452 1454 1455 1457 1459 1460 1463 1465 1467 1468 1470 1472 1473 1473
1444 1442 1440 1438 1437 1435 1433 1432 1431 1429 1428 1427 1426 1426 1426 1426 1427 1428 1429 1430 1431 1433 1434 1435 1435 1437 1438 1440 1442 1443 1445 1447 1449 1451 1453 1455 1457 1460 1461 1463 1465 1466 1467
1443 1441 1439 1437 1435 1433 1431 1429 1428 1426 1424 1422 1421 1420 1420 1419 1419 1420 1420 1421 1422 1424 1425 1426 1427 1428 1429 1431 1433 1435 1436 1438 1440 1443 1445 1447 1449 1452 1454 1456 1458 1460 1461
1443 1440 1438 1435 1433 1431 1429 1426 1424 1422 1420 1418 1416 1415 1414 1413 1412 1412 1412 1413 1414 1415 1415 1417 1418 1419 1420 1422 1424 1426 1428 1430 1432 1434 1437 1439 1442 1444 1446 1448 1451 1453 1454
1441 1438 1436 1433 1431 1428 1426 1423 1421 1418 1416 1414 1411 1410 1408 1407 1405 1405 1405 1405 1406 1406 1406 1408 1409 1410 1410 1413 1415 1417 1419 1421 1422 1426 1428 1431 1434 1436 1438 1441 1443 1446 1448
1438 1436 1433 1430 1428 1425 1422 1420 1417 1414 1412 1409 1407 1404 1403 1401 1400 1398 1397 1397 1397 1397 1399 1400 1400 1400 1402 1404 1407 1408 1409 1411 1412 1416 1420 1422 1425 1427 1431 1433 1436 1439 1441
1436 1433 1430 1427 1424 1421 1418 1415 1412 1409 1407 1404 1402 1399 1397 1395 1393 1392 1390 1388 1388 1388 1390 1391 1391 1392 1394 1396 1397 1399 1401 1403 1405 1407 1410 1413 1416 1419 1423 1426 1429 1431 1434
1433 1429 1426 1423 1420 1416 1414 1410 1407 1404 1401 1399 1397 1394 1392 1389 1387 1385 1383 1380 1379 1379 1381 1382 1382 1383 1385 1386 1389 1391 1392 1394 1394 1397 1401 1404 1407 1411 1415 1418 1421 1424 1427
1429 1426 1422 1419 1415 1412 1409 1406 1403 1399 1396 1394 1391 1388 1386 1384 1381 1379 1377 1375 1372 1371 1372 1372 1373 1374 1375 1376 1378 1380 1382 1384 1386 1388 1391 1396 1399 1403 1407 1410 1414 1417 1420